Zurück zum Katalog

STARLINK-34544

AktivKommunikationSSO
NORAD 64865·PAYLOAD·🇺🇸 United States

Gestartet Jul 19, 2025 von Vandenberg Space Force Base

Loading…

Nächste Überflüge (nächste 24 Stunden)

TLE

AktuellSource: CelesTrak SupGP

Epoche: Sep 14, 2026, 20:42 UTC

1 64865C 25152Z   26257.86298611  .00008216  00000+0  25516-3 0  2572
2 64865  97.2847 108.5095 0001642  92.4535 162.2305 15.33420873    13

Verfolge STARLINK-34544 in Echtzeit mit AllMySat

Download on the App Store